Voltar ao catálogo

STARLINK-37130

AtivoComunicaçõesSSO
NORAD 68604·PAYLOAD·🇺🇸 United States

Lançado Apr 5, 2026 de Vandenberg Space Force Base

Loading…

Próximas Passagens (próximas 24 horas)

TLE

AtualizadoSource: CelesTrak SupGP

Época: Sep 15, 2026, 04:10 UTC

1 68604C 26073C   26258.17409722 -.00055702  00000+0 -17293-2 0  2589
2 68604  97.2848  96.2015 0001797  91.7182 149.8487 15.33462544    18

Acompanhe STARLINK-37130 em tempo real com AllMySat

Download on the App Store